Iwojima, Japan

2:59 PM ChST on February 08, 2016 (GMT +1000)
Iwojima Aero

Weather History for RJAW - February, 2013

Change the Weather History Date:

Saturday, February 16, 2013

  Actual Average Record
Temperature  
Mean Temperature 72 °F -  
Max Temperature 75 °F 70 °F 77 °F (2012)
Min Temperature 66 °F 65 °F 60 °F (2002)
Cooling Degree Days 6    
Growing Degree Days 22 (Base 50)    
Moisture  
Dew Point 61 °F    
Average Humidity 70    
Maximum Humidity 83    
Minimum Humidity 60    
Precipitation  
Precipitation 0.00 in - - ()
Sea Level Pressure  
Sea Level Pressure 29.91 in    
Wind  
Wind Speed 12 mph ()    
Max Wind Speed 21 mph    
Max Gust Speed -    
Visibility 6.2 miles    
Events Rain    
Averages and records for this station are not official NWS values.
T = Trace of Precipitation, MM = Missing Value Source: Averaged Metar Reports

Daily Weather History Graph

Daily Weather History Graph

Search for Another Location

Airport or City:

Trip Planner

Search our weather history database for the weather conditions in past years. The results will help you decide how hot, cold, wet, or windy it might be!

Date:

Astronomy

Feb. 16, 2013 Rise Set
Actual Time 7:08 AM ChST 6:29 PM ChST
Civil Twilight 6:45 AM ChST 6:52 PM ChST
Nautical Twilight 6:18 AM ChST 7:19 PM ChST
Astronomical Twilight 5:51 AM ChST 7:46 PM ChST
Moon 10:40 AM ChST (2/16) No Moon Set
Length of Visible Light 12h 07m
Length of Day
11h 21m
Waxing Crescent, 33% of the Moon is Illuminated
Feb 16
Waxing Crescent
Feb 18
First Quarter
Feb 26
Full
Mar 5
Last Quarter
Mar 12
New

Hourly Weather History & Observations

Time (ChST) Temp. Dew Point Humidity Pressure Visibility Wind Dir Wind Speed Gust Speed Precip Events Conditions
1:00 AM 69.8 °F 64.4 °F 83% 29.92 in 6.2 mi West 10.4 mph - N/A   Partly Cloudy
4:00 AM 69.8 °F 62.6 °F 78% 29.89 in 6.2 mi WNW 10.4 mph - N/A   Partly Cloudy
6:00 AM 69.8 °F 62.6 °F 78% 29.86 in 6.2 mi WNW 11.5 mph - N/A   Partly Cloudy
7:00 AM 69.8 °F 62.6 °F 78% 29.89 in 6.2 mi WNW 10.4 mph - N/A   Partly Cloudy
7:20 AM 69.8 °F 64.4 °F 83% 29.89 in 6.2 mi NW 13.8 mph - N/A   Mostly Cloudy
8:00 AM 71.6 °F 62.6 °F 73% 29.92 in 6.2 mi WNW 10.4 mph - N/A   Mostly Cloudy
8:12 AM 71.6 °F 62.6 °F 73% 29.92 in 6.2 mi WNW 11.5 mph - N/A   Scattered Clouds
9:00 AM 71.6 °F 62.6 °F 73% 29.92 in 6.2 mi WNW 12.7 mph - N/A   Scattered Clouds
9:15 AM 73.4 °F 62.6 °F 69% 29.92 in 6.2 mi WNW 12.7 mph - N/A   Mostly Cloudy
9:33 AM 71.6 °F 64.4 °F 78% 29.92 in 6.2 mi NNW 17.3 mph - N/A Rain Light Rain Showers
9:45 AM 71.6 °F 62.6 °F 73% 29.92 in 6.2 mi NNW 16.1 mph - N/A   Mostly Cloudy
10:00 AM 71.6 °F 62.6 °F 73% 29.92 in 6.2 mi NNW 17.3 mph - N/A   Mostly Cloudy
11:00 AM 73.4 °F 64.4 °F 73% 29.92 in 6.2 mi NNW 15.0 mph - N/A   Mostly Cloudy
11:06 AM 73.4 °F 62.6 °F 69% 29.92 in 6.2 mi NNW 15.0 mph - N/A   Mostly Cloudy
11:50 AM 75.2 °F 62.6 °F 65% 29.92 in 6.2 mi NNW 13.8 mph - N/A   Mostly Cloudy
12:00 PM 75.2 °F 62.6 °F 65% 29.92 in 6.2 mi NNW 15.0 mph - N/A   Mostly Cloudy
1:00 PM 75.2 °F 62.6 °F 65% 29.89 in 6.2 mi NNW 16.1 mph - N/A   Mostly Cloudy
2:00 PM 73.4 °F 60.8 °F 65% 29.89 in 6.2 mi NNW 15.0 mph - N/A   Mostly Cloudy
2:17 PM 73.4 °F 60.8 °F 65% 29.89 in 6.2 mi NNW 15.0 mph - N/A   Mostly Cloudy
3:00 PM 71.6 °F 59.0 °F 64% 29.89 in 6.2 mi NNW 16.1 mph - N/A   Mostly Cloudy
4:00 PM 73.4 °F 59.0 °F 61% 29.89 in 6.2 mi NNW 16.1 mph - N/A   Mostly Cloudy
5:00 PM 71.6 °F 59.0 °F 64% 29.89 in 6.2 mi NNW 15.0 mph - N/A   Mostly Cloudy
6:00 PM 69.8 °F 57.2 °F 64% 29.92 in 6.2 mi NNW 16.1 mph - N/A   Mostly Cloudy
7:00 PM 68.0 °F 57.2 °F 68% 29.95 in 6.2 mi North 19.6 mph - N/A   Mostly Cloudy
10:00 PM 66.2 °F 51.8 °F 60% 30.04 in 6.2 mi North 20.7 mph - N/A   Mostly Cloudy